Weather reports worldwide

Advertisment
Ahaus, Germany (10309): temperature & dewpoint: 16.02.2019 22:00:00 - 22.02.2019 22:00:00 (CET)Ahaus, Germany (10309): temperature 5cm & temperature -5cm: 16.02.2019 22:00:00 - 22.02.2019 22:00:00 (CET)Ahaus, Germany (10309): temperature -20cm & temperature -100cm: 16.02.2019 22:00:00 - 22.02.2019 22:00:00 (CET)Ahaus, Germany (10309): wind speed & gusts: 16.02.2019 22:00:00 - 22.02.2019 22:00:00 (CET)Ahaus, Germany (10309): wind direction: 16.02.2019 22:00:00 - 22.02.2019 22:00:00 (CET)Ahaus, Germany (10309): reduced air pressure: 16.02.2019 22:00:00 - 22.02.2019 22:00:00 (CET)Ahaus, Germany (10309): visibility: 16.02.2019 22:00:00 - 22.02.2019 22:00:00 (CET)Ahaus, Germany (10309): sunshine duration: 16.02.2019 22:00:00 - 22.02.2019 22:00:00 (CET)Ahaus, Germany (10309): precipitation: 16.02.2019 22:00:00 - 22.02.2019 22:00:00 (CET)
Date & Time tt [°C] td [°C] tt 5cm [°C] tt -5cm [°C] tt -20cm [°C] tt -100cm [°C] ff [km/h] ff [kn] fx [km/h] fx [kn] dd ppp [hPa] vv [km] sd [min] rr [mm]
22.02.2019 22:00:00 8,1 5,9 6,1 7,5 7,7 6,1 9 5 21 12 E 1039,5 10 0 0,0
22.02.2019 21:00:00 8,5 6,6 7,4 7,6 7,9 6,1 8 4 13 7 ENE 1039,3 8 0 0,0
22.02.2019 20:00:00 8,4 6,5 6,4 7,8 8,1 6,0 9 5 17 9 ENE 1039,0 8 0 0,0
22.02.2019 19:00:00 7,8 6,5 4,1 8,7 8,2 6,0 5 3 13 7 ENE 1038,8 6 0 0,0
22.02.2019 18:00:00 9,3 7,0 7,6 9,9 8,2 6,0 9 5 14 8 NE 1038,4 8 3 0,0
22.02.2019 17:00:00 10,5 7,4 10,2 10,8 8,1 6,0 10 5 18 10 ENE 1037,9 9 19 0,0
22.02.2019 16:00:00 11,1 7,9 11,9 11,0 7,9 6,0 14 7 19 11 ENE 1037,7 9 13 0,0
22.02.2019 15:00:00 11,3 7,4 12,0 11,1 7,6 6,0 9 5 16 8 ENE 1037,3 13 0 0,0
22.02.2019 14:00:00 11,1 7,1 12,0 11,2 7,3 6,0 8 4 12 7 NE 1037,3 13 0 0,0
22.02.2019 13:00:00 11,1 7,9 13,8 10,5 7,1 6,0 6 4 12 7 NNE 1037,1 11 5 0,0
22.02.2019 12:00:00 10,2 8,5 11,6 9,5 6,9 6,0 5 3 8 4 NNE 1037,1 4,9 0 0,0
22.02.2019 11:00:00 9,5 8,5 10,6 8,5 6,7 6,0 3 2 7 4 NNE 1036,5 4,0 0 0,0
22.02.2019 10:00:00 9,0 8,7 9,9 7,9 6,7 6,0 5 3 7 4 N 1036,2 3,6 0 0,0
22.02.2019 09:00:00 8,6 8,4 8,7 7,5 6,7 6,0 3 2 5 3 N 1035,2 0,9 0 0,2
22.02.2019 08:00:00 8,4 8,4 8,2 7,4 6,7 6,0 3 2 5 3 N 1034,4 0,6 0 0,0
22.02.2019 07:00:00 8,4 8,3 8,1 7,4 6,7 6,0 4 2 7 4 NW 1033,5 0,9 0 0,1
22.02.2019 06:00:00 8,4 8,3 8,2 7,4 6,6 6,0 4 2 8 4 NW 1033,1 0,7 0 0,1
22.02.2019 05:00:00 8,5 8,5 8,2 7,5 6,6 5,9 5 3 9 5 WNW 1032,7 1,0 0 0,0
22.02.2019 04:00:00 8,6 8,5 8,3 7,5 6,6 5,9 6 3 12 6 WNW 1031,9 1,3 0 0,1
22.02.2019 03:00:00 8,5 8,3 8,3 7,5 6,6 5,9 8 5 13 7 W 1031,7 1,3 0 0,1
22.02.2019 02:00:00 8,5 8,3 8,3 7,5 6,6 5,9 8 5 14 7 W 1031,3 1,1 0 0,2
22.02.2019 01:00:00 8,6 8,4 8,3 7,5 6,6 5,9 8 5 14 7 W 1030,8 1,2 0 0,0
22.02.2019 00:00:00 8,6 8,4 8,4 7,6 6,6 5,9 7 4 11 6 W 1030,4 1,4 0 0,1
21.02.2019 23:00:00 8,7 8,5 8,4 7,6 6,6 5,9 7 4 13 7 W 1030,0 1,4 0 0,1
21.02.2019 22:00:00 8,7 8,4 8,5 7,7 6,6 5,9 10 5 16 8 W 1029,6 0,9 0 0,1
21.02.2019 21:00:00 8,9 8,7 8,6 7,8 6,6 5,9 10 5 17 9 W 1028,8 1,4 0 0,0
21.02.2019 20:00:00 9,2 8,5 8,7 7,8 6,5 5,9 11 6 20 11 W 1028,3 1,6 0 0,0
21.02.2019 19:00:00 9,8 7,6 9,2 8,0 6,5 5,9 12 6 30 16 W 1027,7 6 0 0,0
21.02.2019 18:00:00 10,4 7,2 10,0 8,3 6,4 5,9 19 10 32 17 WSW 1027,1 10 0 0,0
21.02.2019 17:00:00 11,1 6,8 10,6 8,6 6,3 5,9 10 5 34 18 WSW 1026,5 10 0 0,0
21.02.2019 16:00:00 11,5 6,8 11,4 9,1 6,0 5,9 14 8 30 16 W 1026,2 16 0 0,0
21.02.2019 15:00:00 11,9 6,7 12,8 9,0 5,7 5,9 13 7 35 19 WSW 1025,9 15 1 0,0
21.02.2019 14:00:00 11,3 6,3 11,8 8,9 5,4 5,9 22 12 38 21 W 1026,1 10 13 0,0
21.02.2019 13:00:00 10,9 6,7 12,4 7,8 5,1 5,9 18 10 35 19 WSW 1025,9 8 7 0,0
21.02.2019 12:00:00 9,4 6,5 8,7 6,8 4,8 5,9 15 8 27 14 WSW 1026,3 4,1 0 0,2
21.02.2019 11:00:00 8,6 5,4 9,6 5,7 4,7 5,9 15 8 24 13 SW 1026,3 6 11 0,0
21.02.2019 10:00:00 7,0 4,7 7,1 4,7 4,6 5,9 15 8 26 14 SW 1025,8 5 0 0,0
21.02.2019 09:00:00 5,8 4,1 5,6 4,1 4,6 5,9 13 7 19 10 SSW 1025,4 4,9 10 0,0
21.02.2019 08:00:00 5,1 3,6 4,3 3,7 4,7 5,9 14 7 19 10 SSW 1025,1 4,9 0 0,0
21.02.2019 07:00:00 5,0 3,5 4,1 3,3 4,8 5,9 14 8 20 11 SW 1024,7 4,8 0 0,0
21.02.2019 06:00:00 4,5 2,9 2,4 3,5 4,9 5,9 11 6 16 9 SW 1024,9 6 0 0,0
21.02.2019 05:00:00 5,2 3,0 3,1 3,8 5,0 5,9 9 5 16 9 SW 1024,9 8 0 0,0
21.02.2019 04:00:00 6,1 3,3 4,6 4,0 5,1 5,9 11 6 20 11 SW 1024,9 10 0 0,0
21.02.2019 03:00:00 5,6 2,8 4,3 3,8 5,2 5,8 10 5 17 9 SW 1024,9 11 0 0,0
21.02.2019 02:00:00 4,8 2,2 2,7 3,9 5,4 5,8 11 6 15 8 SSW 1024,6 11 0 0,0
21.02.2019 01:00:00 5,4 2,2 3,2 4,3 5,6 5,8 11 6 16 9 SW 1024,4 13 0 0,0
21.02.2019 00:00:00 6,1 2,4 3,7 4,6 5,7 5,8 11 6 16 9 SSW 1024,0 13 0 0,0
20.02.2019 23:00:00 6,6 2,9 4,3 4,9 5,9 5,8 9 5 15 8 SW 1023,9 14 0 0,0
20.02.2019 22:00:00 6,2 2,5 1,9 5,5 6,0 5,8 6 4 11 6 SSW 1023,9 15 0 0,0
20.02.2019 21:00:00 6,7 2,3 3,3 6,0 6,1 5,8 7 4 10 5 SSW 1023,8 17 0 0,0
20.02.2019 20:00:00 7,8 3,1 5,3 6,7 6,2 5,8 8 4 13 7 SSW 1023,8 17 0 0,0
20.02.2019 19:00:00 8,7 3,5 7,3 7,2 6,2 5,8 8 4 14 8 SSW 1023,7 20 0 0,0
20.02.2019 18:00:00 9,7 3,4 8,4 7,9 6,1 5,8 9 5 22 12 SW 1023,1 21 6 0,0
20.02.2019 17:00:00 10,4 3,3 10,6 8,5 5,9 5,8 16 8 26 14 WSW 1022,8 22 8 0,0
20.02.2019 16:00:00 10,7 3,4 12,0 8,8 5,6 5,8 14 8 28 15 WSW 1022,7 20 13 0,0
20.02.2019 15:00:00 10,3 3,3 11,7 8,7 5,3 5,8 15 8 31 17 SW 1022,7 16 30 0,0
20.02.2019 14:00:00 10,2 3,9 12,0 8,3 5,0 5,8 14 8 28 15 WSW 1022,7 18 41 0,0
20.02.2019 13:00:00 9,5 3,8 10,9 7,1 4,7 5,8 17 9 29 15 SW 1022,9 17 0 0,0
20.02.2019 12:00:00 8,6 3,1 9,2 6,3 4,4 5,8 15 8 27 15 WSW 1022,8 26 14 0,0
20.02.2019 11:00:00 7,6 2,8 9,9 4,9 4,3 5,8 15 8 22 12 SW 1022,4 20 25 0,0
20.02.2019 10:00:00 5,6 2,5 5,7 3,9 4,3 5,8 15 8 22 12 SW 1022,3 15 0 0,0
20.02.2019 09:00:00 4,1 2,1 3,7 3,1 4,4 5,8 13 7 18 10 SSW 1021,9 10 0 0,0
20.02.2019 08:00:00 3,4 1,7 2,3 3,1 4,5 5,8 11 6 19 11 SSW 1021,3 10 0 0,0
20.02.2019 07:00:00 3,4 1,5 1,6 3,4 4,5 5,8 11 6 16 9 SW 1021,0 10 0 0,0
20.02.2019 06:00:00 4,8 2,1 3,6 3,8 4,6 5,8 10 5 18 10 SW 1020,8 13 0 0,0
20.02.2019 05:00:00 5,0 2,4 4,0 3,8 4,6 5,8 10 5 16 9 SW 1020,7 13 0 0,0
20.02.2019 04:00:00 5,1 2,3 4,3 3,7 4,7 5,8 9 5 18 10 SW 1020,6 13 0 0,0
20.02.2019 03:00:00 5,2 2,2 4,3 3,6 4,8 5,8 12 6 20 11 SW 1020,7 20 0 0,0
20.02.2019 02:00:00 4,6 2,1 3,6 3,4 4,9 5,8 10 5 17 9 SW 1020,7 22 0 0,0
20.02.2019 01:00:00 4,1 1,8 2,4 3,5 5,1 5,8 11 6 19 10 SW 1020,6 22 0 0,0
20.02.2019 00:00:00 4,3 1,9 2,6 3,7 5,3 5,8 9 5 16 9 SW 1020,7 23 0 0,0
19.02.2019 23:00:00 4,6 2,1 2,3 4,1 5,4 5,7 8 5 15 8 SW 1020,5 24 0 0,0
19.02.2019 22:00:00 5,2 2,3 2,8 4,6 5,6 5,7 9 5 22 12 SW 1020,4 23 0 0,0
19.02.2019 21:00:00 6,2 2,5 4,2 5,0 5,7 5,7 11 6 21 11 WSW 1020,1 26 0 0,0
19.02.2019 20:00:00 7,0 2,4 5,0 5,5 5,9 5,7 9 5 23 12 WSW 1019,8 35 0 0,0
19.02.2019 19:00:00 8,0 2,4 6,6 6,2 5,9 5,7 15 8 29 16 WSW 1019,4 36 0 0,0
19.02.2019 18:00:00 8,9 3,4 8,1 6,8 5,9 5,7 14 8 32 17 W 1018,8 39 5 0,0
19.02.2019 17:00:00 9,4 3,1 8,8 7,2 5,8 5,7 18 10 37 20 WSW 1018,6 39 0 0,0
19.02.2019 16:00:00 9,4 3,9 9,1 7,6 5,7 5,7 14 8 36 20 W 1018,4 29 0 0,0
19.02.2019 15:00:00 9,6 4,3 9,7 7,9 5,5 5,7 20 11 39 21 WSW 1018,2 23 1 0,0
19.02.2019 14:00:00 9,1 4,2 9,8 7,8 5,3 5,7 19 10 36 19 WSW 1018,0 18 1 0,0
19.02.2019 13:00:00 8,7 4,4 9,3 7,6 5,0 5,7 20 11 36 19 W 1018,2 14 23 0,0
19.02.2019 12:00:00 7,9 4,5 8,5 6,9 4,8 5,7 16 9 41 22 W 1018,4 13 28 0,0
19.02.2019 11:00:00 7,9 4,7 9,0 5,8 4,7 5,7 21 11 36 19 WSW 1018,0 14 41 0,0
19.02.2019 10:00:00 7,0 4,3 8,2 4,8 4,6 5,7 18 10 37 20 WSW 1017,6 11 59 0,0
19.02.2019 09:00:00 5,7 4,2 5,1 4,4 4,6 5,7 14 8 26 14 SW 1017,4 7 2 0,0
19.02.2019 08:00:00 6,1 4,7 5,0 4,7 4,6 5,7 13 7 27 14 WSW 1016,6 7 0 0,0
19.02.2019 07:00:00 6,4 5,0 5,6 4,6 4,6 5,7 13 7 27 15 WSW 1016,1 6 0 0,0
19.02.2019 06:00:00 6,4 5,2 5,6 4,6 4,6 5,7 13 7 21 11 WSW 1015,9 5 0 0,0
19.02.2019 05:00:00 6,2 5,4 5,4 4,5 4,6 5,7 10 6 18 10 SW 1015,6 3,4 0 0,1
19.02.2019 04:00:00 6,8 5,0 5,7 4,4 4,6 5,7 9 5 22 12 WSW 1015,5 4,5 0 0,1
19.02.2019 03:00:00 7,5 3,8 6,8 4,0 4,6 5,7 10 6 22 12 W 1015,5 10 0 0,0
19.02.2019 02:00:00 6,6 2,3 4,8 3,5 4,7 5,7 9 5 18 10 SW 1015,3 18 0 0,0
19.02.2019 01:00:00 6,2 1,9 3,5 3,6 4,9 5,7 11 6 15 8 SSW 1015,0 14 0 0,0
19.02.2019 00:00:00 8,1 2,0 5,5 3,8 5,0 5,7 10 5 17 9 SW 1015,0 15 0 0,0
18.02.2019 23:00:00 8,1 2,0 5,2 3,8 5,2 5,7 12 6 18 10 SW 1014,9 14 0 0,0
18.02.2019 22:00:00 7,3 1,1 1,0 4,1 5,4 5,7 8 4 10 6 SSW 1015,1 16 0 0,0
18.02.2019 21:00:00 6,1 1,5 0,3 4,7 5,6 5,7 7 4 13 7 SSW 1015,0 14 0 0,0
18.02.2019 20:00:00 5,5 2,1 1,1 5,4 5,8 5,7 4 2 6 3 SSE 1015,0 15 0 0,0
18.02.2019 19:00:00 7,3 2,2 1,1 6,4 5,9 5,7 3 2 6 3 W 1015,2 14 0 0,0
18.02.2019 18:00:00 11,6 2,0 4,3 7,7 5,8 5,7 5 3 12 6 SSW 1014,8 18 14 0,0
18.02.2019 17:00:00 13,6 2,9 11,3 8,8 5,5 5,7 8 4 15 8 SW 1015,1 21 60 0,0
18.02.2019 16:00:00 15,0 2,8 15,4 9,4 5,2 5,7 10 5 21 12 S 1015,5 24 60 0,0
18.02.2019 15:00:00 15,0 2,8 16,3 9,2 4,7 5,7 13 7 22 12 SSW 1015,9 19 60 0,0
18.02.2019 14:00:00 14,6 3,6 16,2 8,5 4,3 5,7 13 7 24 13 SSW 1016,6 16 60 0,0
18.02.2019 13:00:00 12,8 2,4 14,5 7,3 3,8 5,7 16 9 22 12 SSW 1017,4 18 60 0,0
18.02.2019 12:00:00 12,0 1,4 13,9 5,7 3,5 5,7 13 7 23 13 S 1018,1 34 60 0,0
18.02.2019 11:00:00 10,5 0,9 12,1 3,7 3,3 5,7 10 6 19 10 S 1018,5 25 60 0,0
18.02.2019 10:00:00 8,3 0,5 9,3 1,8 3,4 5,7 10 5 16 9 S 1018,8 19 60 0,0
18.02.2019 09:00:00 2,9 -1,0 1,9 1,5 3,5 5,7 9 5 14 8 SSE 1019,2 16 42 0,0
18.02.2019 08:00:00 0,3 -1,2 -2,9 1,6 3,7 5,7 6 4 9 5 ESE 1019,2 14 0 0,0
18.02.2019 07:00:00 0,0 -1,8 -2,7 1,6 3,8 5,7 8 4 9 5 ESE 1019,2 14 0 0,0
18.02.2019 06:00:00 1,0 -0,9 -2,8 1,7 4,0 5,7 5 3 6 3 SE 1019,6 15 0 0,0
18.02.2019 05:00:00 2,7 -0,8 -2,0 2,1 4,2 5,7 4 2 8 4 ESE 1019,6 17 0 0,0
18.02.2019 04:00:00 6,9 -0,1 -1,3 2,4 4,4 5,7 5 3 9 5 S 1019,6 21 0 0,0
18.02.2019 03:00:00 6,7 -0,1 -0,2 2,8 4,5 5,7 5 3 12 7 SSW 1019,8 21 0 0,0
18.02.2019 02:00:00 8,1 0,0 1,7 3,1 4,7 5,7 8 5 13 7 S 1020,0 21 0 0,0
18.02.2019 01:00:00 8,1 0,4 1,8 3,5 4,9 5,7 6 4 16 9 S 1019,8 20 0 0,0
18.02.2019 00:00:00 8,5 0,8 4,3 3,8 5,0 5,7 11 6 17 9 SSW 1019,8 19 0 0,0
17.02.2019 23:00:00 9,2 1,0 4,7 4,1 5,2 5,7 10 5 16 9 SSW 1019,8 22 0 0,0
17.02.2019 22:00:00 9,3 1,0 4,7 4,5 5,4 5,7 10 6 18 10 SSW 1019,8 21 0 0,0
17.02.2019 21:00:00 11,2 0,9 6,0 4,8 5,6 5,7 10 6 18 10 S 1019,4 21 0 0,0
17.02.2019 20:00:00 6,7 1,9 1,1 5,4 5,7 5,7 8 4 13 7 S 1019,5 15 0 0,0
17.02.2019 19:00:00 9,4 2,5 2,9 6,5 5,8 5,7 6 4 8 5 SSE 1019,1 15 0 0,0
17.02.2019 18:00:00 13,1 2,2 5,6 7,8 5,7 5,7 8 5 14 7 S 1018,9 17 8 0,0
17.02.2019 17:00:00 14,9 2,6 11,8 9,0 5,4 5,7 8 5 16 9 S 1019,1 16 60 0,0
17.02.2019 16:00:00 15,1 3,1 14,6 9,4 5,0 5,7 13 7 16 9 SSE 1019,3 14 60 0,0
17.02.2019 15:00:00 15,1 3,8 15,8 9,3 4,5 5,6 11 6 16 9 SSE 1019,7 16 60 0,0
17.02.2019 14:00:00 14,8 4,3 16,4 8,7 3,9 5,6 11 6 16 9 SSE 1020,2 14 60 0,0
17.02.2019 13:00:00 13,2 3,6 15,3 7,1 3,4 5,6 11 6 17 9 SSE 1020,9 12 60 0,0
17.02.2019 12:00:00 11,2 3,5 13,5 5,0 3,1 5,6 11 6 18 10 SSE 1021,8 11 60 0,0
17.02.2019 11:00:00 9,1 3,0 10,1 2,6 3,1 5,6 10 6 15 8 SSE 1022,2 14 60 0,0
17.02.2019 10:00:00 6,3 2,1 6,5 1,4 3,1 5,6 10 5 14 8 SSE 1022,6 10 59 0,0
17.02.2019 09:00:00 1,6 0,3 -0,6 1,3 3,2 5,6 5 3 10 6 SE 1022,8 6 3 0,0
17.02.2019 08:00:00 1,3 0,2 -1,8 1,4 3,3 5,6 8 4 10 5 SSE 1023,0 5 0 0,0
17.02.2019 07:00:00 1,3 0,0 -2,5 1,5 3,5 5,6 7 4 10 6 SSE 1022,9 6 0 0,0
17.02.2019 06:00:00 2,8 0,5 -1,5 1,5 3,6 5,6 9 5 11 6 SSE 1023,2 7 0 0,0
17.02.2019 05:00:00 3,0 0,5 -1,5 1,6 3,8 5,6 10 5 13 7 S 1023,6 8 0 0,0
17.02.2019 04:00:00 0,7 -0,3 -2,0 1,8 4,0 5,6 7 4 11 6 S 1024,0 6 0 0,0
17.02.2019 03:00:00 1,4 0,4 -2,4 2,0 4,1 5,6 3 2 20 11 SE 1024,4 6 0 0,0
17.02.2019 02:00:00 0,4 -0,5 -1,6 2,2 4,3 5,6 9 5 11 6 SSE 1024,7 5 0 0,0
17.02.2019 01:00:00 0,7 -0,1 -1,9 2,5 4,6 5,6 5 3 8 4 ESE 1025,0 7 0 0,0
17.02.2019 00:00:00 1,4 0,3 -2,1 2,9 4,8 5,6 3 2 8 4 ENE 1025,1 7 0 0,0
16.02.2019 23:00:00 2,0 0,7 -1,1 3,3 5,0 5,6 5 3 6 3 SSE 1025,2 8 0 0,0
16.02.2019 22:00:00 2,9 1,5 -1,2 3,8 5,2 5,6 4 2 6 3 SE 1025,3 9 0 0,0

tt = temperature
td = dewpoint
tt 5cm = temperature 5cm
tt -5cm = temperature -5cm
tt -20cm = temperature -20cm
tt -100cm = temperature -100cm
ff = wind speed
fx = gusts
dd = wind direction
ppp = reduced air pressure
vv = visibility
sd = sunshine duration
rr = precipitation

Next stations